This is the latest recevied weather packets stored in our database for station/object N8QQQ. If no packets are shown the sender has not sent any weather packets the latest 1 day(s).
| Time | Temp. | Humidity | Pressure | Rain* | Wind** | Luminosity | Snow |
|---|---|---|---|---|---|---|---|
| 1777983044 | 0.56° C | 92% | 1003.4 hPa | 0 mm | 0.45 m/s, 331° | 15 W/m² | - |
| 1777982740 | 0.56° C | 91% | 1003.5 hPa | 0 mm | 0.89 m/s, 294° | 8 W/m² | - |
| 1777982436 | 1.11° C | 88% | 1003.4 hPa | 0 mm | 1.34 m/s, 330° | 9 W/m² | - |
| 1777982130 | 1.67° C | 84% | 1003.3 hPa | 0 mm | 1.34 m/s, 21° | 10 W/m² | - |
| 1777981828 | 2.78° C | 75% | 1003.1 hPa | 0 mm | 0.89 m/s, 354° | 10 W/m² | - |
| 1777981525 | 2.78° C | 75% | 1002.9 hPa | 0 mm | 0 m/s | 15 W/m² | - |
| 1777981221 | 2.22° C | 74% | 1002.8 hPa | 0 mm | 0.45 m/s, 246° | 15 W/m² | - |
| 1777980918 | 2.22° C | 75% | 1002.9 hPa | 0 mm | 0 m/s | 16 W/m² | - |
| 1777980615 | 2.22° C | 74% | 1002.8 hPa | 0 mm | 0.89 m/s, 310° | 15 W/m² | - |
| 1777980311 | 2.22° C | 76% | 1002.8 hPa | 0 mm | 0 m/s | 15 W/m² | - |
| 1777980009 | 2.22° C | 76% | 1002.7 hPa | 0 mm | 0 m/s | 11 W/m² | - |
| 1777979702 | 2.22° C | 76% | 1002.8 hPa | 0 mm | 0 m/s | 8 W/m² | - |
| 1777979399 | 2.22° C | 76% | 1002.7 hPa | 0 mm | 0 m/s | 6 W/m² | - |
| 1777979095 | 2.22° C | 76% | 1002.7 hPa | 0 mm | 0.45 m/s, 283° | 3 W/m² | - |
| 1777978792 | 2.22° C | 76% | 1002.4 hPa | 0 mm | 0 m/s | 4 W/m² | - |
| 1777978489 | 2.22° C | 75% | 1002.5 hPa | 0 mm | 0 m/s | 3 W/m² | - |
| 1777978184 | 1.67° C | 75% | 1002.5 hPa | 0 mm | 0 m/s | 2 W/m² | - |
| 1777977882 | 1.67° C | 75% | 1002.4 hPa | 0 mm | 0.45 m/s, 333° | 2 W/m² | - |
| 1777977578 | 1.67° C | 75% | 1002 hPa | 0 mm | 0 m/s | 1 W/m² | - |
| 1777977276 | 1.67° C | 75% | 1002 hPa | 0 mm | 0 m/s | 1 W/m² | - |
| 1777976973 | 1.67° C | 75% | 1002.4 hPa | 0 mm | 0 m/s | 1 W/m² | - |
| 1777976670 | 1.67° C | 74% | 1002 hPa | 0 mm | 0 m/s | 0 W/m² | - |
| 1777976367 | 1.67° C | 75% | 1001.9 hPa | 0 mm | 0 m/s | 0 W/m² | - |
| 1777976061 | 1.67° C | 74% | 1001.9 hPa | 0 mm | 0 m/s | 0 W/m² | - |
| 1777975757 | 1.67° C | 74% | 1001.9 hPa | 0 mm | 0 m/s | 0 W/m² | - |
* Rain latest hour (hover to see other rain measurements)
** Current wind speed in m/s (hover to see current wind gust speed)